AFR132 LFPG-DNMM

Flight info

Callsign AFR132
Flight time N/A
Altitude 37000
Route AGOPA DCT ARKIP DCT ARMAL DCT ARTAX DCT BEBIX DCT LMG DCT UVELI DCT OSMOB DCT 440013N0004856W DCT ARVID DCT PPN DCT NOLSA DCT ALEPO DCT VASUM DCT BANEV DCT BAN DCT PINAR DCT CJN L27 BLN DCT MGA DCT PIMOS DCT GALTO DCT 350021N0055504W DCT RBT UN869 PELAX UB11 MABAP DCT 310014N0082644W 300007N0083931W 290046N0085202W DCT BULIS DCT 270042N0090513W 260057N0090002W 250040N0085524W DCT EBATI DCT 230122N0084516W DCT POVAS DCT 210115N0083504W DCT IPONA UM122 TAPUS DCT 190037N0082453W 180041N0082036W 170147N0081643W DCT EREMO UM122 OPARA DCT 140111N0080238W DCT BKO DCT 113943N0072354W DCT SEXEM UG851 RATEK DCT 085954N0044903W DCT LUGEX DCT KOBNA DCT 081219N0010007W DCT PAMPA DCT 072646N0013623E DCT TEMSA DCT EBSEX
Aircraft B772/H-SDE2E3FGHIJ5LORVWXY/LB1D1

Departure

Time 2026-05-08 21:10
Airport Charles de Gaulle International Airport (LFPG)

Arrival

Time N/A
Airport Murtala Muhammed International Airport (DNMM)
Time Latitude Longitude Altitude Speed Heading
2026-05-08 20:18 49.00113 2.57438 337 ft 0 kts 359°
2026-05-08 20:56 49.00104 2.57439 337 ft 2 kts 359°
2026-05-08 20:56 49.00090 2.57439 337 ft 0 kts 359°
2026-05-08 20:56 49.00080 2.57440 337 ft 2 kts 349°
2026-05-08 20:57 49.00067 2.57448 337 ft 2 kts 324°
2026-05-08 20:57 49.00056 2.57463 337 ft 2 kts 304°
2026-05-08 20:57 49.00050 2.57484 337 ft 2 kts 282°
2026-05-08 20:57 49.00049 2.57502 337 ft 0 kts 265°
2026-05-08 20:58 49.00049 2.57506 337 ft 0 kts 264°
2026-05-08 21:00 49.00049 2.57505 337 ft 0 kts 264°
2026-05-08 21:01 49.00048 2.57494 337 ft 1 kts 261°
2026-05-08 21:01 49.00045 2.57470 337 ft 2 kts 262°
2026-05-08 21:01 49.00042 2.57428 337 ft 5 kts 264°
2026-05-08 21:01 49.00038 2.57368 337 ft 7 kts 261°
2026-05-08 21:02 48.99987 2.57275 336 ft 13 kts 219°
2026-05-08 21:02 48.99949 2.57140 336 ft 14 kts 264°
2026-05-08 21:02 48.99939 2.56984 337 ft 14 kts 265°
2026-05-08 21:02 48.99932 2.56830 337 ft 14 kts 266°
2026-05-08 21:03 48.99923 2.56673 337 ft 14 kts 265°
2026-05-08 21:03 48.99915 2.56516 337 ft 15 kts 265°
2026-05-08 21:03 48.99914 2.56492 337 ft 0 kts 265°
2026-05-08 21:03 48.99914 2.56491 337 ft 0 kts 265°
2026-05-08 21:04 48.99914 2.56489 337 ft 0 kts 265°
2026-05-08 21:04 48.99914 2.56488 337 ft 0 kts 265°
2026-05-08 21:04 48.99914 2.56487 337 ft 0 kts 265°
2026-05-08 21:04 48.99914 2.56485 337 ft 0 kts 265°
2026-05-08 21:05 48.99913 2.56479 337 ft 2 kts 265°
2026-05-08 21:05 48.99910 2.56424 337 ft 7 kts 265°
2026-05-08 21:05 48.99904 2.56314 337 ft 12 kts 265°
2026-05-08 21:05 48.99895 2.56153 337 ft 17 kts 265°
2026-05-08 21:06 48.99894 2.55963 338 ft 19 kts 279°
2026-05-08 21:06 48.99921 2.55773 338 ft 14 kts 288°
2026-05-08 21:06 48.99929 2.55626 339 ft 14 kts 251°
2026-05-08 21:06 48.99896 2.55484 338 ft 12 kts 254°
2026-05-08 21:07 48.99888 2.55415 338 ft 0 kts 262°
2026-05-08 21:07 48.99887 2.55406 338 ft 3 kts 262°
2026-05-08 21:07 48.99885 2.55340 340 ft 9 kts 270°
2026-05-08 21:07 48.99881 2.55208 340 ft 16 kts 267°
2026-05-08 21:08 48.99870 2.55025 340 ft 16 kts 263°
2026-05-08 21:08 48.99836 2.54868 340 ft 15 kts 224°
2026-05-08 21:08 48.99739 2.54887 338 ft 16 kts 126°
2026-05-08 21:08 48.99686 2.55046 337 ft 17 kts 116°
2026-05-08 21:09 48.99633 2.55210 337 ft 17 kts 115°
2026-05-08 21:09 48.99586 2.55377 337 ft 17 kts 104°
2026-05-08 21:09 48.99580 2.55455 337 ft 0 kts 90°
2026-05-08 21:09 48.99580 2.55494 337 ft 24 kts 89°
2026-05-08 21:10 48.99618 2.56193 336 ft 105 kts 86°
2026-05-08 21:10 48.99700 2.57646 425 ft 160 kts 84°
2026-05-08 21:10 48.99765 2.59218 1354 ft 145 kts 85°
2026-05-08 21:10 48.99851 2.60798 2032 ft 158 kts 82°
2026-05-08 21:11 48.99953 2.62433 2709 ft 152 kts 84°
2026-05-08 21:11 49.00043 2.64094 2777 ft 163 kts 84°
2026-05-08 21:11 49.00138 2.65826 2942 ft 166 kts 84°
2026-05-08 21:11 49.00232 2.67585 3176 ft 166 kts 84°
2026-05-08 21:12 49.00321 2.69362 3398 ft 167 kts 84°
2026-05-08 21:12 49.00416 2.71140 3602 ft 169 kts 84°
2026-05-08 21:12 49.00510 2.72939 3755 ft 175 kts 84°
2026-05-08 21:12 49.00608 2.74860 3774 ft 189 kts 84°
2026-05-08 21:13 49.00716 2.76912 3792 ft 202 kts 84°
2026-05-08 21:13 49.00676 2.79106 3880 ft 209 kts 96°
2026-05-08 21:13 49.00448 2.81315 4035 ft 216 kts 97°
2026-05-08 21:13 49.00201 2.83658 4148 ft 232 kts 98°
2026-05-08 21:14 48.99931 2.86179 4343 ft 250 kts 98°
2026-05-08 21:14 48.99640 2.88864 4724 ft 260 kts 98°
2026-05-08 21:14 48.99339 2.91575 5247 ft 264 kts 99°
2026-05-08 21:14 48.99021 2.94372 5810 ft 267 kts 99°
2026-05-08 21:15 48.98626 2.97117 6321 ft 272 kts 110°
2026-05-08 21:15 48.97610 2.99586 6786 ft 277 kts 130°
2026-05-08 21:15 48.96321 3.01743 7395 ft 277 kts 139°
2026-05-08 21:15 48.94644 3.03154 7853 ft 280 kts 166°
2026-05-08 21:16 48.92714 3.03424 8402 ft 280 kts 180°
2026-05-08 21:16 48.90793 3.03358 9028 ft 279 kts 181°
2026-05-08 21:16 48.88837 3.03282 9590 ft 280 kts 182°
2026-05-08 21:16 48.86874 3.03224 10130 ft 283 kts 182°
2026-05-08 21:17 48.84877 3.03173 10432 ft 295 kts 182°
2026-05-08 21:17 48.82761 3.03116 10629 ft 312 kts 182°
2026-05-08 21:17 48.80594 3.02618 10750 ft 328 kts 200°
2026-05-08 21:17 48.78584 3.00841 10819 ft 346 kts 219°
2026-05-08 21:18 48.76739 2.98307 11044 ft 362 kts 223°
2026-05-08 21:18 48.74880 2.95649 11546 ft 368 kts 223°
2026-05-08 21:18 48.73018 2.92981 12236 ft 370 kts 223°
2026-05-08 21:18 48.71166 2.90327 12893 ft 372 kts 223°
2026-05-08 21:19 48.69264 2.87602 13479 ft 377 kts 223°
2026-05-08 21:19 48.67341 2.84845 14101 ft 382 kts 223°
2026-05-08 21:19 48.65416 2.82086 14730 ft 386 kts 224°
2026-05-08 21:19 48.63457 2.79280 15394 ft 389 kts 224°
2026-05-08 21:20 48.61489 2.76463 16062 ft 391 kts 224°
2026-05-08 21:20 48.59506 2.73628 16742 ft 393 kts 224°
2026-05-08 21:20 48.57525 2.70796 17294 ft 398 kts 224°
2026-05-08 21:20 48.55524 2.67933 17896 ft 401 kts 224°
2026-05-08 21:21 48.53487 2.65020 18514 ft 404 kts 224°
2026-05-08 21:21 48.51442 2.62097 19053 ft 408 kts 224°
2026-05-08 21:21 48.49374 2.59144 19538 ft 413 kts 224°
2026-05-08 21:21 48.47274 2.56152 20021 ft 417 kts 224°
2026-05-08 21:22 48.45170 2.53160 20515 ft 420 kts 224°
2026-05-08 21:22 48.43024 2.50108 20999 ft 424 kts 224°
2026-05-08 21:22 48.40892 2.47079 21424 ft 428 kts 224°
2026-05-08 21:22 48.38708 2.43980 21861 ft 432 kts 224°
2026-05-08 21:23 48.36504 2.40857 22279 ft 436 kts 224°
2026-05-08 21:23 48.34294 2.37729 22678 ft 440 kts 224°
2026-05-08 21:23 48.32044 2.34542 23091 ft 444 kts 223°
2026-05-08 21:23 48.29803 2.31373 23501 ft 447 kts 223°
2026-05-08 21:24 48.27520 2.28148 23916 ft 451 kts 223°
2026-05-08 21:24 48.25349 2.25081 24334 ft 453 kts 223°
2026-05-08 21:24 48.23033 2.21813 24750 ft 455 kts 224°
2026-05-08 21:24 48.20723 2.18545 25173 ft 458 kts 224°
2026-05-08 21:25 48.18415 2.15277 25597 ft 461 kts 224°
2026-05-08 21:25 48.16075 2.11961 26010 ft 464 kts 224°
2026-05-08 21:25 48.13706 2.08645 26420 ft 467 kts 221°
2026-05-08 21:25 48.11093 2.05771 26850 ft 471 kts 212°
2026-05-08 21:26 48.08155 2.03544 27280 ft 474 kts 201°
2026-05-08 21:26 48.04995 2.02079 27715 ft 476 kts 192°
2026-05-08 21:26 48.01703 2.01432 28137 ft 478 kts 182°
2026-05-08 21:26 47.98340 2.01497 28503 ft 481 kts 177°
2026-05-08 21:27 47.94995 2.01716 28752 ft 487 kts 177°
2026-05-08 21:27 47.91608 2.01940 29083 ft 490 kts 178°
2026-05-08 21:27 47.88156 2.02160 29466 ft 493 kts 178°
2026-05-08 21:27 47.84767 2.02366 29911 ft 494 kts 178°
2026-05-08 21:28 47.81265 2.02578 30498 ft 492 kts 178°
2026-05-08 21:28 47.77866 2.02782 31149 ft 489 kts 178°
2026-05-08 21:28 47.74491 2.02983 31748 ft 486 kts 178°
2026-05-08 21:28 47.71087 2.03184 32282 ft 484 kts 178°